Location: Unspecified
(0.0000°N, 0.0000°E)
Time: 08:54:17
(UTC+00:00)

Vanguard 2 Rocket - Pass Details

Date: 15 December 2018
Orbit: 556 x 3325 km, 32.9° (Epoch: 22 March)

Event Time Altitude Azimuth Distance (km) Brightness Sun altitude
Rises 11:16:11 0° 337° (NNW) 3,744 9.8 64.9°
Reaches altitude 10° 11:19:17 10° 355° (N) 3,145 9.5 65.1°
Maximum altitude 11:25:08 21° 41° (NE) 3,044 9.7 65.6°
Drops below altitude 10° 11:33:29 10° 84° (E) 4,708 10.7 66.1°
Sets 11:39:37 0° 98° (E) 6,272 11.3 66.4°
